Year,Month,Day,Hour,Minute,Value (Times are PST for temperature in C)
2017,05,26,00,00,15.30
2017,05,26,00,01,15.30
2017,05,26,00,02,15.20
2017,05,26,00,03,15.10
2017,05,26,00,04,15.00
2017,05,26,00,05,14.90
2017,05,26,00,06,14.90
2017,05,26,00,07,15.00
2017,05,26,00,08,15.10
2017,05,26,00,09,15.20
2017,05,26,00,10,15.30
2017,05,26,00,11,15.30
2017,05,26,00,12,15.40
2017,05,26,00,13,15.50
2017,05,26,00,14,15.60
2017,05,26,00,15,15.70
2017,05,26,00,16,15.70
2017,05,26,00,17,15.80
2017,05,26,00,18,15.80
2017,05,26,00,19,15.80
2017,05,26,00,20,15.80
2017,05,26,00,21,15.70
2017,05,26,00,22,15.60
2017,05,26,00,23,15.50
2017,05,26,00,24,15.30
2017,05,26,00,25,15.20
2017,05,26,00,26,15.10
2017,05,26,00,27,14.90
2017,05,26,00,28,14.80
2017,05,26,00,29,14.70
2017,05,26,00,30,14.50
2017,05,26,00,31,14.40
2017,05,26,00,32,14.30
2017,05,26,00,33,14.10
2017,05,26,00,34,14.00
2017,05,26,00,35,13.90
2017,05,26,00,36,13.80
2017,05,26,00,37,13.60
2017,05,26,00,38,13.50
2017,05,26,00,39,13.50
2017,05,26,00,40,13.40
2017,05,26,00,41,13.30
2017,05,26,00,42,13.20
2017,05,26,00,43,13.20
2017,05,26,00,44,13.20
2017,05,26,00,45,13.10
2017,05,26,00,46,13.10
2017,05,26,00,47,13.00
2017,05,26,00,48,12.90
2017,05,26,00,49,12.90
2017,05,26,00,50,12.80
2017,05,26,00,51,12.80
2017,05,26,00,52,12.70
2017,05,26,00,53,12.70
2017,05,26,00,54,12.70
2017,05,26,00,55,12.70
2017,05,26,00,56,12.70
2017,05,26,00,57,12.70
2017,05,26,00,58,12.80
2017,05,26,00,59,12.80
2017,05,26,01,00,12.80
2017,05,26,01,01,12.80
2017,05,26,01,02,12.70
2017,05,26,01,03,12.80
2017,05,26,01,04,12.80
2017,05,26,01,05,12.80
2017,05,26,01,06,12.90
2017,05,26,01,07,13.00
2017,05,26,01,08,13.10
2017,05,26,01,09,13.20
2017,05,26,01,10,13.30
2017,05,26,01,11,13.50
2017,05,26,01,12,13.60
2017,05,26,01,13,13.60
2017,05,26,01,14,13.70
2017,05,26,01,15,13.80
2017,05,26,01,16,13.90
2017,05,26,01,17,14.10
2017,05,26,01,18,14.20
2017,05,26,01,19,14.30
2017,05,26,01,20,14.40
2017,05,26,01,21,14.40
2017,05,26,01,22,14.50
2017,05,26,01,23,14.60
2017,05,26,01,24,14.60
2017,05,26,01,25,14.60
2017,05,26,01,26,14.60
2017,05,26,01,27,14.60
2017,05,26,01,28,14.50
2017,05,26,01,29,14.50
2017,05,26,01,30,14.50
2017,05,26,01,31,14.40
2017,05,26,01,32,14.40
2017,05,26,01,33,14.30
2017,05,26,01,34,14.20
2017,05,26,01,35,14.00
2017,05,26,01,36,13.90
2017,05,26,01,37,13.80
2017,05,26,01,38,13.60
2017,05,26,01,39,13.50
2017,05,26,01,40,13.40
2017,05,26,01,41,13.30
2017,05,26,01,42,13.20
2017,05,26,01,43,13.00
2017,05,26,01,44,12.90
2017,05,26,01,45,12.80
2017,05,26,01,46,12.70
2017,05,26,01,47,12.60
2017,05,26,01,48,12.50
2017,05,26,01,49,12.40
2017,05,26,01,50,12.30
2017,05,26,01,51,12.20
2017,05,26,01,52,12.20
2017,05,26,01,53,12.10
2017,05,26,01,54,12.10
2017,05,26,01,55,12.10
2017,05,26,01,56,12.10
2017,05,26,01,57,12.10
2017,05,26,01,58,12.10
2017,05,26,01,59,12.20
2017,05,26,02,00,12.20
2017,05,26,02,01,12.20
2017,05,26,02,02,12.30
2017,05,26,02,03,12.40
2017,05,26,02,04,12.50
2017,05,26,02,05,12.60
2017,05,26,02,06,12.70
2017,05,26,02,07,12.80
2017,05,26,02,08,12.90
2017,05,26,02,09,13.00
2017,05,26,02,10,13.10
2017,05,26,02,11,13.20
2017,05,26,02,12,13.30
2017,05,26,02,13,13.40
2017,05,26,02,14,13.60
2017,05,26,02,15,13.70
2017,05,26,02,16,13.80
2017,05,26,02,17,13.90
2017,05,26,02,18,14.00
2017,05,26,02,19,14.10
2017,05,26,02,20,14.20
2017,05,26,02,21,14.30
2017,05,26,02,22,14.30
2017,05,26,02,23,14.40
2017,05,26,02,24,14.50
2017,05,26,02,25,14.50
2017,05,26,02,26,14.60
2017,05,26,02,27,14.60
2017,05,26,02,28,14.60
2017,05,26,02,29,14.60
2017,05,26,02,30,14.60
2017,05,26,02,31,14.60
2017,05,26,02,32,14.60
2017,05,26,02,33,14.60
2017,05,26,02,34,14.60
2017,05,26,02,35,14.60
2017,05,26,02,36,14.60
2017,05,26,02,37,14.60
2017,05,26,02,38,14.60
2017,05,26,02,39,14.60
2017,05,26,02,40,14.50
2017,05,26,02,41,14.50
2017,05,26,02,42,14.40
2017,05,26,02,43,14.30
2017,05,26,02,44,14.20
2017,05,26,02,45,14.00
2017,05,26,02,46,13.90
2017,05,26,02,47,13.70
2017,05,26,02,48,13.50
2017,05,26,02,49,13.30
2017,05,26,02,50,13.20
2017,05,26,02,51,13.10
2017,05,26,02,52,13.00
2017,05,26,02,53,13.00
2017,05,26,02,54,13.10
2017,05,26,02,55,13.20
2017,05,26,02,56,13.30
2017,05,26,02,57,13.40
2017,05,26,02,58,13.50
2017,05,26,02,59,13.60
2017,05,26,03,00,13.60
2017,05,26,03,01,13.60
2017,05,26,03,02,13.70
2017,05,26,03,03,13.70
2017,05,26,03,04,13.80
2017,05,26,03,05,13.80
2017,05,26,03,06,13.80
2017,05,26,03,07,13.80
2017,05,26,03,08,13.80
2017,05,26,03,09,13.80
2017,05,26,03,10,13.80
2017,05,26,03,11,13.70
2017,05,26,03,12,13.70
2017,05,26,03,13,13.50
2017,05,26,03,14,13.40
2017,05,26,03,15,13.30
2017,05,26,03,16,13.20
2017,05,26,03,17,13.10
2017,05,26,03,18,13.00
2017,05,26,03,19,12.90
2017,05,26,03,20,12.90
2017,05,26,03,21,12.80
2017,05,26,03,22,12.80
2017,05,26,03,23,12.70
2017,05,26,03,24,12.70
2017,05,26,03,25,12.60
2017,05,26,03,26,12.60
2017,05,26,03,27,12.60
2017,05,26,03,28,12.50
2017,05,26,03,29,12.40
2017,05,26,03,30,12.40
2017,05,26,03,31,12.30
2017,05,26,03,32,12.20
2017,05,26,03,33,12.20
2017,05,26,03,34,12.10
2017,05,26,03,35,11.90
2017,05,26,03,36,11.80
2017,05,26,03,37,11.70
2017,05,26,03,38,11.60
2017,05,26,03,39,11.50
2017,05,26,03,40,11.40
2017,05,26,03,41,11.30
2017,05,26,03,42,11.20
2017,05,26,03,43,11.20
2017,05,26,03,44,11.10
2017,05,26,03,45,11.00
2017,05,26,03,46,10.90
2017,05,26,03,47,10.80
2017,05,26,03,48,10.70
2017,05,26,03,49,10.70
2017,05,26,03,50,10.70
2017,05,26,03,51,10.60
2017,05,26,03,52,10.60
2017,05,26,03,53,10.50
2017,05,26,03,54,10.50
2017,05,26,03,55,10.50
2017,05,26,03,56,10.50
2017,05,26,03,57,10.50
2017,05,26,03,58,10.50
2017,05,26,03,59,10.40
2017,05,26,04,00,10.40
2017,05,26,04,01,10.40
2017,05,26,04,02,10.40
2017,05,26,04,03,10.30
2017,05,26,04,04,10.30
2017,05,26,04,05,10.30
2017,05,26,04,06,10.20
2017,05,26,04,07,10.20
2017,05,26,04,08,10.10
2017,05,26,04,09,10.10
2017,05,26,04,10,10.00
2017,05,26,04,11,10.00
2017,05,26,04,12,9.90
2017,05,26,04,13,9.90
2017,05,26,04,14,9.90
2017,05,26,04,15,9.90
2017,05,26,04,16,9.90
2017,05,26,04,17,10.00
2017,05,26,04,18,10.00
2017,05,26,04,19,10.00
2017,05,26,04,20,10.00
2017,05,26,04,21,10.00
2017,05,26,04,22,10.10
2017,05,26,04,23,10.20
2017,05,26,04,24,10.30
2017,05,26,04,25,10.40
2017,05,26,04,26,10.50
2017,05,26,04,27,10.60
2017,05,26,04,28,10.70
2017,05,26,04,29,10.80
2017,05,26,04,30,10.80
2017,05,26,04,31,10.80
2017,05,26,04,32,10.80
2017,05,26,04,33,10.80
2017,05,26,04,34,10.80
2017,05,26,04,35,10.80
2017,05,26,04,36,10.80
2017,05,26,04,37,10.80
2017,05,26,04,38,10.70
2017,05,26,04,39,10.70
2017,05,26,04,40,10.80
2017,05,26,04,41,10.70
2017,05,26,04,42,10.70
2017,05,26,04,43,10.70
2017,05,26,04,44,10.70
2017,05,26,04,45,10.70
2017,05,26,04,46,10.70
2017,05,26,04,47,10.70
2017,05,26,04,48,10.70
2017,05,26,04,49,10.70
2017,05,26,04,50,10.70
2017,05,26,04,51,10.70
2017,05,26,04,52,10.70
2017,05,26,04,53,10.70
2017,05,26,04,54,10.70
2017,05,26,04,55,10.70
2017,05,26,04,56,10.60
2017,05,26,04,57,10.50
2017,05,26,04,58,10.50
2017,05,26,04,59,10.40
2017,05,26,05,00,10.30
2017,05,26,05,01,10.20
2017,05,26,05,02,10.10
2017,05,26,05,03,10.10
2017,05,26,05,04,10.10
2017,05,26,05,05,10.10
2017,05,26,05,06,10.10
2017,05,26,05,07,10.00
2017,05,26,05,08,9.90
2017,05,26,05,09,9.90
2017,05,26,05,10,9.90
2017,05,26,05,11,9.90
2017,05,26,05,12,9.90
2017,05,26,05,13,9.90
2017,05,26,05,14,9.90
2017,05,26,05,15,10.00
2017,05,26,05,16,10.00
2017,05,26,05,17,9.90
2017,05,26,05,18,9.90
2017,05,26,05,19,9.80
2017,05,26,05,20,9.80
2017,05,26,05,21,9.70
2017,05,26,05,22,9.70
2017,05,26,05,23,9.70
2017,05,26,05,24,9.70
2017,05,26,05,25,9.60
2017,05,26,05,26,9.60
2017,05,26,05,27,9.60
2017,05,26,05,28,9.50
2017,05,26,05,29,9.50
2017,05,26,05,30,9.50
2017,05,26,05,31,9.40
2017,05,26,05,32,9.40
2017,05,26,05,33,9.40
2017,05,26,05,34,9.40
2017,05,26,05,35,9.30
2017,05,26,05,36,9.30
2017,05,26,05,37,9.30
2017,05,26,05,38,9.30
2017,05,26,05,39,9.30
2017,05,26,05,40,9.20
2017,05,26,05,41,9.20
2017,05,26,05,42,9.20
2017,05,26,05,43,9.10
2017,05,26,05,44,9.10
2017,05,26,05,45,9.10
2017,05,26,05,46,9.10
2017,05,26,05,47,9.10
2017,05,26,05,48,9.10
2017,05,26,05,49,9.10
2017,05,26,05,50,9.10
2017,05,26,05,51,9.20
2017,05,26,05,52,9.30
2017,05,26,05,53,9.40
2017,05,26,05,54,9.50
2017,05,26,05,55,9.50
2017,05,26,05,56,9.60
2017,05,26,05,57,9.60
2017,05,26,05,58,9.70
2017,05,26,05,59,9.70
2017,05,26,06,00,9.70
2017,05,26,06,01,9.70
2017,05,26,06,02,9.80
2017,05,26,06,03,9.80
2017,05,26,06,04,9.80
2017,05,26,06,05,9.80
2017,05,26,06,06,9.80
2017,05,26,06,07,9.80
2017,05,26,06,08,9.80
2017,05,26,06,09,9.80
2017,05,26,06,10,9.80
2017,05,26,06,11,9.80
2017,05,26,06,12,9.80
2017,05,26,06,13,9.80
2017,05,26,06,14,9.80
2017,05,26,06,15,9.80
2017,05,26,06,16,9.80
2017,05,26,06,17,9.80
2017,05,26,06,18,9.80
2017,05,26,06,19,9.90
2017,05,26,06,20,9.90
2017,05,26,06,21,9.90
2017,05,26,06,22,9.90
2017,05,26,06,23,9.90
2017,05,26,06,24,9.90
2017,05,26,06,25,9.90
2017,05,26,06,26,9.90
2017,05,26,06,27,10.00
2017,05,26,06,28,10.00
2017,05,26,06,29,10.10
2017,05,26,06,30,10.10
2017,05,26,06,31,10.10
2017,05,26,06,32,10.20
2017,05,26,06,33,10.20
2017,05,26,06,34,10.20
2017,05,26,06,35,10.20
2017,05,26,06,36,10.20
2017,05,26,06,37,10.20
2017,05,26,06,38,10.30
2017,05,26,06,39,10.30
2017,05,26,06,40,10.40
2017,05,26,06,41,10.40
2017,05,26,06,42,10.50
2017,05,26,06,43,10.50
2017,05,26,06,44,10.60
2017,05,26,06,45,10.70
2017,05,26,06,46,10.70
2017,05,26,06,47,10.80
2017,05,26,06,48,10.90
2017,05,26,06,49,11.00
2017,05,26,06,50,11.10
2017,05,26,06,51,11.20
2017,05,26,06,52,11.30
2017,05,26,06,53,11.40
2017,05,26,06,54,11.40
2017,05,26,06,55,11.50
2017,05,26,06,56,11.60
2017,05,26,06,57,11.70
2017,05,26,06,58,11.90
2017,05,26,06,59,12.00
2017,05,26,07,00,12.10
2017,05,26,07,01,12.30
2017,05,26,07,02,12.40
2017,05,26,07,03,12.50
2017,05,26,07,04,12.60
2017,05,26,07,05,12.70
2017,05,26,07,06,12.90
2017,05,26,07,07,13.00
2017,05,26,07,08,13.20
2017,05,26,07,09,13.40
2017,05,26,07,10,13.50
2017,05,26,07,11,13.70
2017,05,26,07,12,13.80
2017,05,26,07,13,13.90
2017,05,26,07,14,14.00
2017,05,26,07,15,14.10
2017,05,26,07,16,14.20
2017,05,26,07,17,14.20
2017,05,26,07,18,14.30
2017,05,26,07,19,14.40
2017,05,26,07,20,14.50
2017,05,26,07,21,14.60
2017,05,26,07,22,14.60
2017,05,26,07,23,14.60
2017,05,26,07,24,14.70
2017,05,26,07,25,14.70
2017,05,26,07,26,14.80
2017,05,26,07,27,14.80
2017,05,26,07,28,14.80
2017,05,26,07,29,14.80
2017,05,26,07,30,14.80
2017,05,26,07,31,14.80
2017,05,26,07,32,14.80
2017,05,26,07,33,14.80
2017,05,26,07,34,14.80
2017,05,26,07,35,14.80
2017,05,26,07,36,14.80
2017,05,26,07,37,14.80
2017,05,26,07,38,14.80
2017,05,26,07,39,14.90
2017,05,26,07,40,14.90
2017,05,26,07,41,14.90
2017,05,26,07,42,14.90
2017,05,26,07,43,14.90
2017,05,26,07,44,14.90
2017,05,26,07,45,14.90
2017,05,26,07,46,14.90
2017,05,26,07,47,14.90
2017,05,26,07,48,14.90
2017,05,26,07,49,14.90
2017,05,26,07,50,14.90
2017,05,26,07,51,14.80
2017,05,26,07,52,14.80
2017,05,26,07,53,14.80
2017,05,26,07,54,14.80
2017,05,26,07,55,14.80
2017,05,26,07,56,14.80
2017,05,26,07,57,14.80
2017,05,26,07,58,14.80
2017,05,26,07,59,14.80
2017,05,26,08,00,14.80
2017,05,26,08,01,14.80
2017,05,26,08,02,14.80
2017,05,26,08,03,14.80
2017,05,26,08,04,14.90
2017,05,26,08,05,14.80
2017,05,26,08,06,14.80
2017,05,26,08,07,14.80
2017,05,26,08,08,14.80
2017,05,26,08,09,14.80
2017,05,26,08,10,14.80
2017,05,26,08,11,14.80
2017,05,26,08,12,14.80
2017,05,26,08,13,14.80
2017,05,26,08,14,14.90
2017,05,26,08,15,14.90
2017,05,26,08,16,14.90
2017,05,26,08,17,14.90
2017,05,26,08,18,14.90
2017,05,26,08,19,14.90
2017,05,26,08,20,14.90
2017,05,26,08,21,14.80
2017,05,26,08,22,14.80
2017,05,26,08,23,14.80
2017,05,26,08,24,14.80
2017,05,26,08,25,14.80
2017,05,26,08,26,14.80
2017,05,26,08,27,14.80
2017,05,26,08,28,14.80
2017,05,26,08,29,14.80
2017,05,26,08,30,14.80
2017,05,26,08,31,14.80
2017,05,26,08,32,14.80
2017,05,26,08,33,14.80
2017,05,26,08,34,14.80
2017,05,26,08,35,14.80
2017,05,26,08,36,14.80
2017,05,26,08,37,14.80
2017,05,26,08,38,14.80
2017,05,26,08,39,14.80
2017,05,26,08,40,14.80
2017,05,26,08,41,14.80
2017,05,26,08,42,14.90
2017,05,26,08,43,14.90
2017,05,26,08,44,14.90
2017,05,26,08,45,14.90
2017,05,26,08,46,14.80
2017,05,26,08,47,14.70
2017,05,26,08,48,14.80
2017,05,26,08,49,14.80
2017,05,26,08,50,14.80
2017,05,26,08,51,14.90
2017,05,26,08,52,14.90
2017,05,26,08,53,14.90
2017,05,26,08,54,15.00
2017,05,26,08,55,15.00
2017,05,26,08,56,15.00
2017,05,26,08,57,15.00
2017,05,26,08,58,14.90
2017,05,26,08,59,14.90
2017,05,26,09,00,14.90
2017,05,26,09,01,14.90
2017,05,26,09,02,14.90
2017,05,26,09,03,15.00
2017,05,26,09,04,15.00
2017,05,26,09,05,15.10
2017,05,26,09,06,15.10
2017,05,26,09,07,15.00
2017,05,26,09,08,15.00
2017,05,26,09,09,14.90
2017,05,26,09,10,14.90
2017,05,26,09,11,14.90
2017,05,26,09,12,14.90
2017,05,26,09,13,14.80
2017,05,26,09,14,14.80
2017,05,26,09,15,14.80
2017,05,26,09,16,14.70
2017,05,26,09,17,14.70
2017,05,26,09,18,14.60
2017,05,26,09,19,14.60
2017,05,26,09,20,14.60
2017,05,26,09,21,14.60
2017,05,26,09,22,14.60
2017,05,26,09,23,14.60
2017,05,26,09,24,14.70
2017,05,26,09,25,14.70
2017,05,26,09,26,14.70
2017,05,26,09,27,14.80
2017,05,26,09,28,14.70
2017,05,26,09,29,14.70
2017,05,26,09,30,14.70
2017,05,26,09,31,14.70
2017,05,26,09,32,14.70
2017,05,26,09,33,14.70
2017,05,26,09,34,14.70
2017,05,26,09,35,14.80
2017,05,26,09,36,14.80
2017,05,26,09,37,14.80
2017,05,26,09,38,14.80
2017,05,26,09,39,14.80
2017,05,26,09,40,14.80
2017,05,26,09,41,14.70
2017,05,26,09,42,14.80
2017,05,26,09,43,14.80
2017,05,26,09,44,14.80
2017,05,26,09,45,14.70
2017,05,26,09,46,14.70
2017,05,26,09,47,14.60
2017,05,26,09,48,14.60
2017,05,26,09,49,14.50
2017,05,26,09,50,14.50
2017,05,26,09,51,14.50
2017,05,26,09,52,14.50
2017,05,26,09,53,14.50
2017,05,26,09,54,14.50
2017,05,26,09,55,14.50
2017,05,26,09,56,14.50
2017,05,26,09,57,14.50
2017,05,26,09,58,14.50
2017,05,26,09,59,14.50
2017,05,26,10,00,14.50
2017,05,26,10,01,14.50
2017,05,26,10,02,14.50
2017,05,26,10,03,14.50
2017,05,26,10,04,14.50
2017,05,26,10,05,14.50
2017,05,26,10,06,14.50
2017,05,26,10,07,14.40
2017,05,26,10,08,14.40
2017,05,26,10,09,14.30
2017,05,26,10,10,14.30
2017,05,26,10,11,14.30
2017,05,26,10,12,14.20
2017,05,26,10,13,14.20
2017,05,26,10,14,14.20
2017,05,26,10,15,14.20
2017,05,26,10,16,14.20
2017,05,26,10,17,14.20
2017,05,26,10,18,14.20
2017,05,26,10,19,14.20
2017,05,26,10,20,14.20
2017,05,26,10,21,14.10
2017,05,26,10,22,14.10
2017,05,26,10,23,14.10
2017,05,26,10,24,14.10
2017,05,26,10,25,14.10
2017,05,26,10,26,14.10
2017,05,26,10,27,14.10
2017,05,26,10,28,14.00
2017,05,26,10,29,13.90
2017,05,26,10,30,13.90
2017,05,26,10,31,13.90
2017,05,26,10,32,13.90
2017,05,26,10,33,14.00
2017,05,26,10,34,14.10
2017,05,26,10,35,14.00
2017,05,26,10,36,14.10
2017,05,26,10,37,14.10
2017,05,26,10,38,14.10
2017,05,26,10,39,14.00
2017,05,26,10,40,14.00
2017,05,26,10,41,14.10
2017,05,26,10,42,14.20
2017,05,26,10,43,14.20
2017,05,26,10,44,14.30
2017,05,26,10,45,14.30
2017,05,26,10,46,14.30
2017,05,26,10,47,14.30
2017,05,26,10,48,14.20
2017,05,26,10,49,14.20
2017,05,26,10,50,14.30
2017,05,26,10,51,14.30
2017,05,26,10,52,14.30
2017,05,26,10,53,14.40
2017,05,26,10,54,14.40
2017,05,26,10,55,14.50
2017,05,26,10,56,14.60
2017,05,26,10,57,14.60
2017,05,26,10,58,14.70
2017,05,26,10,59,14.70
2017,05,26,11,00,14.70
2017,05,26,11,01,14.60
2017,05,26,11,02,14.60
2017,05,26,11,03,14.60
2017,05,26,11,04,14.60
2017,05,26,11,05,14.60
2017,05,26,11,06,14.60
2017,05,26,11,07,14.70
2017,05,26,11,08,14.70
2017,05,26,11,09,14.60
2017,05,26,11,10,14.60
2017,05,26,11,11,14.60
2017,05,26,11,12,14.60
2017,05,26,11,13,14.60
2017,05,26,11,14,14.60
2017,05,26,11,15,14.60
2017,05,26,11,16,14.60
2017,05,26,11,17,14.60
2017,05,26,11,18,14.60
2017,05,26,11,19,14.60
2017,05,26,11,20,14.60
2017,05,26,11,21,14.60
2017,05,26,11,22,14.70
2017,05,26,11,23,14.70
2017,05,26,11,24,14.70
2017,05,26,11,25,14.70
2017,05,26,11,26,14.80
2017,05,26,11,27,14.80
2017,05,26,11,28,14.80
2017,05,26,11,29,14.80
2017,05,26,11,30,14.80
2017,05,26,11,31,14.80
2017,05,26,11,32,14.70
2017,05,26,11,33,14.70
2017,05,26,11,34,14.70
2017,05,26,11,35,14.70
2017,05,26,11,36,14.70
2017,05,26,11,37,14.70
2017,05,26,11,38,14.70
2017,05,26,11,39,14.70
2017,05,26,11,40,14.80
2017,05,26,11,41,14.80
2017,05,26,11,42,14.90
2017,05,26,11,43,15.00
2017,05,26,11,44,15.00
2017,05,26,11,45,15.00
2017,05,26,11,46,14.90
2017,05,26,11,47,14.90
2017,05,26,11,48,14.90
2017,05,26,11,49,14.80
2017,05,26,11,50,14.80
2017,05,26,11,51,14.80
2017,05,26,11,52,14.70
2017,05,26,11,53,14.80
2017,05,26,11,54,14.80
2017,05,26,11,55,14.80
2017,05,26,11,56,14.70
2017,05,26,11,57,14.70
2017,05,26,11,58,14.70
2017,05,26,11,59,14.80
2017,05,26,12,00,14.80
2017,05,26,12,01,14.80
2017,05,26,12,02,14.80
2017,05,26,12,03,14.80
2017,05,26,12,04,14.80
2017,05,26,12,05,14.90
2017,05,26,12,06,15.00
2017,05,26,12,07,15.00
2017,05,26,12,08,15.10
2017,05,26,12,09,15.10
2017,05,26,12,10,15.10
2017,05,26,12,11,15.10
2017,05,26,12,12,15.10
2017,05,26,12,13,15.10
2017,05,26,12,14,15.20
2017,05,26,12,15,15.20
2017,05,26,12,16,15.20
2017,05,26,12,17,15.20
2017,05,26,12,18,15.20
2017,05,26,12,19,15.20
2017,05,26,12,20,15.10
2017,05,26,12,21,15.10
2017,05,26,12,22,15.10
2017,05,26,12,23,15.10
2017,05,26,12,24,15.20
2017,05,26,12,25,15.20
2017,05,26,12,26,15.20
2017,05,26,12,27,15.20
2017,05,26,12,28,15.30
2017,05,26,12,29,15.30
2017,05,26,12,30,15.30
2017,05,26,12,31,15.40
2017,05,26,12,32,15.50
2017,05,26,12,33,15.50
2017,05,26,12,34,15.60
2017,05,26,12,35,15.70
2017,05,26,12,36,15.70
2017,05,26,12,37,15.70
2017,05,26,12,38,15.70
2017,05,26,12,39,15.70
2017,05,26,12,40,15.80
2017,05,26,12,41,15.90
2017,05,26,12,42,15.90
2017,05,26,12,43,15.90
2017,05,26,12,44,15.90
2017,05,26,12,45,16.00
2017,05,26,12,46,16.10
2017,05,26,12,47,16.10
2017,05,26,12,48,16.10
2017,05,26,12,49,16.20
2017,05,26,12,50,16.20
2017,05,26,12,51,16.30
2017,05,26,12,52,16.30
2017,05,26,12,53,16.30
2017,05,26,12,54,16.40
2017,05,26,12,55,16.50
2017,05,26,12,56,16.50
2017,05,26,12,57,16.50
2017,05,26,12,58,16.60
2017,05,26,12,59,16.60
2017,05,26,13,00,16.60
2017,05,26,13,01,16.60
2017,05,26,13,02,16.60
2017,05,26,13,03,16.60
2017,05,26,13,04,16.60
2017,05,26,13,05,16.60
2017,05,26,13,06,16.60
2017,05,26,13,07,16.60
2017,05,26,13,08,16.60
2017,05,26,13,09,16.60
2017,05,26,13,10,16.70
2017,05,26,13,11,16.70
2017,05,26,13,12,16.80
2017,05,26,13,13,16.80
2017,05,26,13,14,16.90
2017,05,26,13,15,17.00
2017,05,26,13,16,17.00
2017,05,26,13,17,17.10
2017,05,26,13,18,17.10
2017,05,26,13,19,17.20
2017,05,26,13,20,17.30
2017,05,26,13,21,17.30
2017,05,26,13,22,17.30
2017,05,26,13,23,17.40
2017,05,26,13,24,17.50
2017,05,26,13,25,17.60
2017,05,26,13,26,17.60
2017,05,26,13,27,17.70
2017,05,26,13,28,17.60
2017,05,26,13,29,17.60
2017,05,26,13,30,17.60
2017,05,26,13,31,17.60
2017,05,26,13,32,17.60
2017,05,26,13,33,17.60
2017,05,26,13,34,17.60
2017,05,26,13,35,17.60
2017,05,26,13,36,17.70
2017,05,26,13,37,17.70
2017,05,26,13,38,17.80
2017,05,26,13,39,17.80
2017,05,26,13,40,17.80
2017,05,26,13,41,17.80
2017,05,26,13,42,17.90
2017,05,26,13,43,17.80
2017,05,26,13,44,17.80
2017,05,26,13,45,17.80
2017,05,26,13,46,17.80
2017,05,26,13,47,17.90
2017,05,26,13,48,17.90
2017,05,26,13,49,17.90
2017,05,26,13,50,17.90
2017,05,26,13,51,17.90
2017,05,26,13,52,18.00
2017,05,26,13,53,18.00
2017,05,26,13,54,17.90
2017,05,26,13,55,17.90
2017,05,26,13,56,17.80
2017,05,26,13,57,17.80
2017,05,26,13,58,17.70
2017,05,26,13,59,17.60
2017,05,26,14,00,17.60
2017,05,26,14,01,17.60
2017,05,26,14,02,17.60
2017,05,26,14,03,17.60
2017,05,26,14,04,17.60
2017,05,26,14,05,17.60
2017,05,26,14,06,17.50
2017,05,26,14,07,17.50
2017,05,26,14,08,17.50
2017,05,26,14,09,17.50
2017,05,26,14,10,17.50
2017,05,26,14,11,17.60
2017,05,26,14,12,17.60
2017,05,26,14,13,17.60
2017,05,26,14,14,17.60
2017,05,26,14,15,17.60
2017,05,26,14,16,17.60
2017,05,26,14,17,17.60
2017,05,26,14,18,17.70
2017,05,26,14,19,17.70
2017,05,26,14,20,17.80
2017,05,26,14,21,17.80
2017,05,26,14,22,18.00
2017,05,26,14,23,18.10
2017,05,26,14,24,18.10
2017,05,26,14,25,18.10
2017,05,26,14,26,18.10
2017,05,26,14,27,18.10
2017,05,26,14,28,18.10
2017,05,26,14,29,18.10
2017,05,26,14,30,18.20
2017,05,26,14,31,18.20
2017,05,26,14,32,18.20
2017,05,26,14,33,18.20
2017,05,26,14,34,18.20
2017,05,26,14,35,18.30
2017,05,26,14,36,18.30
2017,05,26,14,37,18.40
2017,05,26,14,38,18.40
2017,05,26,14,39,18.40
2017,05,26,14,40,18.50
2017,05,26,14,41,18.50
2017,05,26,14,42,18.60
2017,05,26,14,43,18.60
2017,05,26,14,44,18.70
2017,05,26,14,45,18.80
2017,05,26,14,46,18.80
2017,05,26,14,47,18.90
2017,05,26,14,48,18.90
2017,05,26,14,49,18.90
2017,05,26,14,50,18.90
2017,05,26,14,51,18.90
2017,05,26,14,52,18.90
2017,05,26,14,53,18.90
2017,05,26,14,54,18.90
2017,05,26,14,55,19.00
2017,05,26,14,56,19.00
2017,05,26,14,57,19.10
2017,05,26,14,58,19.10
2017,05,26,14,59,19.10
2017,05,26,15,00,19.20
2017,05,26,15,01,19.20
2017,05,26,15,02,19.30
2017,05,26,15,03,19.30
2017,05,26,15,04,19.30
2017,05,26,15,05,19.40
2017,05,26,15,06,19.40
2017,05,26,15,07,19.40
2017,05,26,15,08,19.50
2017,05,26,15,09,19.50
2017,05,26,15,10,19.60
2017,05,26,15,11,19.60
2017,05,26,15,12,19.60
2017,05,26,15,13,19.60
2017,05,26,15,14,19.60
2017,05,26,15,15,19.60
2017,05,26,15,16,19.60
2017,05,26,15,17,19.70
2017,05,26,15,18,19.70
2017,05,26,15,19,19.70
2017,05,26,15,20,19.80
2017,05,26,15,21,19.80
2017,05,26,15,22,19.90
2017,05,26,15,23,19.90
2017,05,26,15,24,19.90
2017,05,26,15,25,19.90
2017,05,26,15,26,19.90
2017,05,26,15,27,20.00
2017,05,26,15,28,20.10
2017,05,26,15,29,20.00
2017,05,26,15,30,20.00
2017,05,26,15,31,20.10
2017,05,26,15,32,20.10
2017,05,26,15,33,20.10
2017,05,26,15,34,20.10
2017,05,26,15,35,20.20
2017,05,26,15,36,20.20
2017,05,26,15,37,20.30
2017,05,26,15,38,20.30
2017,05,26,15,39,20.30
2017,05,26,15,40,20.40
2017,05,26,15,41,20.40
2017,05,26,15,42,20.40
2017,05,26,15,43,20.40
2017,05,26,15,44,20.50
2017,05,26,15,45,20.60
2017,05,26,15,46,20.60
2017,05,26,15,47,20.60
2017,05,26,15,48,20.60
2017,05,26,15,49,20.60
2017,05,26,15,50,20.60
2017,05,26,15,51,20.60
2017,05,26,15,52,20.60
2017,05,26,15,53,20.60
2017,05,26,15,54,20.60
2017,05,26,15,55,20.60
2017,05,26,15,56,20.70
2017,05,26,15,57,20.70
2017,05,26,15,58,20.80
2017,05,26,15,59,20.80
2017,05,26,16,00,20.90
2017,05,26,16,01,20.90
2017,05,26,16,02,20.90
2017,05,26,16,03,20.90
2017,05,26,16,04,21.00
2017,05,26,16,05,20.90
2017,05,26,16,06,20.90
2017,05,26,16,07,20.90
2017,05,26,16,08,20.90
2017,05,26,16,09,20.90
2017,05,26,16,10,20.90
2017,05,26,16,11,20.90
2017,05,26,16,12,21.00
2017,05,26,16,13,21.00
2017,05,26,16,14,21.10
2017,05,26,16,15,21.10
2017,05,26,16,16,21.10
2017,05,26,16,17,21.10
2017,05,26,16,18,21.20
2017,05,26,16,19,21.20
2017,05,26,16,20,21.20
2017,05,26,16,21,21.20
2017,05,26,16,22,21.20
2017,05,26,16,23,21.20
2017,05,26,16,24,21.20
2017,05,26,16,25,21.20
2017,05,26,16,26,21.20
2017,05,26,16,27,21.20
2017,05,26,16,28,21.10
2017,05,26,16,29,21.10
2017,05,26,16,30,21.10
2017,05,26,16,31,21.10
2017,05,26,16,32,21.10
2017,05,26,16,33,21.20
2017,05,26,16,34,21.20
2017,05,26,16,35,21.20
2017,05,26,16,36,21.20
2017,05,26,16,37,21.20
2017,05,26,16,38,21.20
2017,05,26,16,39,21.20
2017,05,26,16,40,21.30
2017,05,26,16,41,21.30
2017,05,26,16,42,21.30
2017,05,26,16,43,21.30
2017,05,26,16,44,21.30
2017,05,26,16,45,21.40
2017,05,26,16,46,21.40
2017,05,26,16,47,21.40
2017,05,26,16,48,21.40
2017,05,26,16,49,21.40
2017,05,26,16,50,21.40
2017,05,26,16,51,21.50
2017,05,26,16,52,21.50
2017,05,26,16,53,21.60
2017,05,26,16,54,21.60
2017,05,26,16,55,21.50
2017,05,26,16,56,21.50
2017,05,26,16,57,21.40
2017,05,26,16,58,21.40
2017,05,26,16,59,21.30
2017,05,26,17,00,21.30
2017,05,26,17,01,21.30
2017,05,26,17,02,21.30
2017,05,26,17,03,21.30
2017,05,26,17,04,21.40
2017,05,26,17,05,21.40
2017,05,26,17,06,21.40
2017,05,26,17,07,21.50
2017,05,26,17,08,21.60
2017,05,26,17,09,21.70
2017,05,26,17,10,21.80
2017,05,26,17,11,21.80
2017,05,26,17,12,21.80
2017,05,26,17,13,21.80
2017,05,26,17,14,21.80
2017,05,26,17,15,21.80
2017,05,26,17,16,21.80
2017,05,26,17,17,21.80
2017,05,26,17,18,21.90
2017,05,26,17,19,21.90
2017,05,26,17,20,22.00
2017,05,26,17,21,22.00
2017,05,26,17,22,22.00
2017,05,26,17,23,22.10